Back to catalog

COSMOS 2433

GLONASS

AliveNavigationMEO
NORAD 32275·PAYLOAD·🇷🇺 Russia

Launched Oct 26, 2007 from Baikonur Cosmodrome

Loading…

Next Passes (next 24 hours)

TLE

FreshSource: Space-Track

Epoch: Sep 14, 2026, 13:03 UTC

1 32275U 07052A   26257.54387713 -.00000055  00000-0  00000-0 0  9994
2 32275  65.5212 312.9232 0005480 225.3959 134.6326  2.13104077146962

Track COSMOS 2433 in real time with AllMySat

Download on the App Store